www.pogodaiklimat.ru
ПОГОДА в Сиалкот аэропорту
Время
(UTC), дата
21 5.11
00 6.11
03 6.11
06 6.11
09 6.11
12 6.11
15 6.11
18 6.11
21 6.11
00 7.11
03 7.11
06 7.11
09 7.11
12 7.11
15 7.11
18 7.11
21 7.11
00 8.11
03 8.11
06 8.11
09 8.11
12 8.11
15 8.11
18 8.11
21 8.11
00 9.11
03 9.11
06 9.11
09 9.11
12 9.11
15 9.11
18 9.11
21 9.11
00 10.11
03 10.11
06 10.11
12 10.11
15 10.11
18 10.11
21 10.11
00 11.11
03 11.11
06 11.11
09 11.11
12 11.11
15 11.11
18 11.11
21 11.11
00 12.11
03 12.11
06 12.11
09 12.11
12 12.11
15 12.11
Ветер
(напр.,м/с)
Видим. Явления Облачность Т
(С)
Тd
(С)
f
(%)
Тe
(С)
Тes
(С)
Комфортность P
(гПа)
Po
(гПа)
Тmin
(С)
Tmax
(С)
R
(мм)
R24
(мм)
S
(см)
В 2 4000 м дым 8/4 1000 м
[Sc diur, vesp Ac As]
+19.0 +15.6 81 +21 +21 комфорт 1010.6 981.7
В 3 4000 м дым 8/4 1000 м
[Sc diur, vesp Ac As]
+18.0 +13.6 75 +18 +18 тепло 1008.5 979.3
ЮВ 5 4000 м дым 8/4 1000 м
[Sc diur, vesp Ac As]
+19.5 +13.4 68 +21 +21 комфорт 1009.5 980.3 +16.7
ЮВ 4 2000 м дым 8/4 1000 м
[Sc diur, vesp Ac As]
+24.0 +13.9 53 +26 +28 жарко 1011.1 981.8
ЮВ 5 2000 м мгла 8/4 1000 м
[Sc diur, vesp Ac As]
+27.0 +14.6 47 +30 +31 душно 1009.6 981.5
ЮВ 3 2000 м в посл. час гроза {дождь} 8/3 1000 м
[Sc diur, vesp Ac As]
+24.5 +12.4 47 +26 +26 жарко 1007.3 978.1 +28.0 0.0
В 4 2000 м гроза без осадков 10/5 600 м
[Cb cap Ac As]
+22.5 +13.0 55 +25 +25 комфорт 1007.3 978.8
СЗ 2 4000 м гроза без осадков 10/5 1000 м
[Cb cap As op]
+20.0 +15.8 77 +23 +23 комфорт 1008.8 979.7 4
ЮЗ 4 4000 м гроза без осадков 10/6 600 м
[Cb cap As op]
+17.5 +14.9 85 +17 +17 тепло 1009.2 980.2 0.0
СЗ 4 4000 м гроза без осадков 6/4 600 м
[Cb cap Ac trans]
+17.5 +14.0 80 +17 +17 тепло 1009.4 980.2
ЮВ 3 2000 м гроза, ливневой дождь 10/5 600 м
[Cb cap Ac As]
+17.0 +15.3 90 +17 +17 тепло 1012.5 983.1 +16.7 0.0
СВ 4 4000 м гроза, ливневой дождь 10/6 600 м
[Cb cap As op]
+16.0 +15.1 94 +15 +16 тепло 1013.8 984.4 6
С 6 2000 м гроза, ливневой дождь 10/8 600 м
[Cb cap As op]
+13.0 +13.0 100 +10 +10 тепло 1013.0 983.4 26
СВ 7 4000 м дым {гроза, дождь} 8/4 1000 м
[Sc diur, vesp Ac As]
+14.0 +13.1 94 +12 +12 тепло 1013.4 984.0 +18.0 10
СВ 6 4000 м слаб. дождь 9/4 1000 м
[Sc diur, vesp Ac As]
+14.5 +12.7 89 +13 +13 тепло 1014.7 985.2 0.0
СВ 5 4000 м дым {дождь} 8/4 1000 м
[Sc diur, vesp Ac As]
+15.0 +11.3 79 +14 +14 тепло 1015.8 986.4 0.0
штиль 0 4000 м дым 3/3 1000 м
[Sc diur, vesp]
+12.0 +9.0 82 +11 +11 тепло 1015.7 986.0
С 2 4000 м дым 3/3 1000 м
[Sc]
+11.5 +8.5 82 +10 +10 тепло 1016.2 986.8
С 2 4000 м дым ясно +13.0 +9.1 77 +12 +13 тепло 1017.7 988.2 +9.2
штиль 0 4000 м дым ясно +19.5 +10.3 55 +20 +31 тепло 1019.1 989.5
СЗ 2 4000 м мгла ясно +22.5 +9.7 44 +24 +30 комфорт 1016.7 988.0
СЗ 2 4000 м дым ясно +21.0 +11.1 53 +24 +24 комфорт 1016.5 987.0 +32.2
З 2 4000 м дым ясно +17.5 +12.1 71 +18 +18 тепло 1017.2 988.0
штиль 0 4000 м дым ясно +16.0 +12.4 79 +16 +16 тепло 1017.8 988.3
штиль 0 4000 м дым ясно +14.5 +11.7 83 +14 +14 тепло 1017.0 987.5
штиль 0 4000 м дым ясно +12.5 +10.6 88 +12 +12 тепло 1016.0 986.6
штиль 0 4000 м дым ясно +13.5 +10.6 83 +13 +14 тепло 1016.8 987.3 +10.8
штиль 0 4000 м дым ясно +20.5 +12.6 60 +22 +33 комфорт 1017.9 988.4
СЗ 2 4000 м мгла ясно +25.5 +11.5 42 +27 +33 жарко 1015.4 987.0
З 2 4000 м дым ясно +24.5 +16.4 61 +28 +28 душно 1014.7 985.3 +26.3
штиль 0 4000 м дым ясно +19.5 +14.4 72 +21 +21 комфорт 1015.5 986.5
штиль 0 4000 м дым ясно +18.0 +14.6 81 +18 +18 тепло 1015.9 986.5
штиль 0 1000 м дымка ясно +15.5 +13.7 89 +15 +15 тепло 1015.2 985.8
штиль 0 500 м туман местами ясно +14.0 +13.1 94 +14 +14 тепло 1015.2 985.8
штиль 0 2000 м осадки на расстоянии {туман} ясно +16.0 +13.3 84 +16 +17 тепло 1016.5 987.0 +12.4
штиль 0 4000 м дым {туман} ясно +23.0 +14.6 59 +27 +37 душно 1017.1 987.6
штиль 0 4000 м мгла 4/0
[Ac trans]
+24.5 +11.7 45 +26 +26 жарко 1014.1 984.7 +26.1
СЗ 2 4000 м дым ясно +25.5 +10.4 39 +26 +26 жарко 1015.1 986.7
штиль 0 4000 м дым ясно +18.0 +14.6 81 +18 +18 тепло 1015.0 985.6
штиль 0 2000 м дым 4/0
[Ac trans]
+16.0 +13.3 84 +16 +16 тепло 1014.4 985.1
штиль 0 2000 м дым 4/0
[Ac trans]
+15.5 +13.7 89 +15 +15 тепло 1013.6 984.2
штиль 0 2000 м дым 8/3 1000 м
[Sc diur, vesp Ac As]
+16.0 +13.3 84 +16 +16 тепло 1015.0 985.6 +13.3
штиль 0 4000 м дым 8/4 1000 м
[Sc diur, vesp Ac As]
+21.0 +15.0 69 +24 +27 комфорт 1015.7 986.3
СЗ 2 4000 м дым 8/3 1000 м
[Sc diur, vesp Ac As]
+24.0 +12.8 50 +26 +28 жарко 1014.4 985.9
штиль 0 4000 м дым 9/4 1000 м
[Sc diur, vesp Ac As]
+22.5 +14.0 59 +26 +26 жарко 1013.6 984.2 +24.8
штиль 0 4000 м дым 5/1 1000 м
[Sc diur, vesp Ac As]
+19.0 +14.7 76 +20 +20 тепло 1014.5 985.5
штиль 0 4000 м дым 5/1 1000 м
[Sc diur, vesp Ac As]
+17.5 +14.0 80 +17 +17 тепло 1014.9 985.5
штиль 0 4000 м дым 9/4 1000 м
[Sc diur, vesp Ac As]
+17.0 +14.4 85 +17 +17 тепло 1014.5 985.3
штиль 0 4000 м дым 8/3 1000 м
[Sc diur, vesp Ac As]
+16.5 +14.8 90 +16 +16 тепло 1014.1 984.7
штиль 0 2000 м дымка 8/4 1000 м
[Sc diur, vesp Ac As]
+16.5 +14.8 90 +16 +17 тепло 1015.4 986.0 +13.8
штиль 0 4000 м дым 6/3 1000 м
[Sc diur, vesp Ac As]
+21.0 +16.0 73 +24 +29 комфорт 1016.6 987.1
З 2 4000 м дым 9/3 1000 м
[Sc diur, vesp Ac As]
+25.0 +15.1 54 +28 +30 жарко 1014.9 986.5
штиль 0 4000 м дым 9/4 1000 м
[Sc diur, vesp Ac As]
+23.0 +15.6 63 +27 +27 душно 1014.5 985.1 +25.5
штиль 0 4000 м дым 9/4 1000 м
[Sc diur, vesp Ac As]
+19.5 +15.3 77 +21 +21 комфорт 1015.7 986.7
Местоположение метеостанции Сиалкот аэропорт (Пакистан): широта 32.53 долгота 74.03 высота над уровнем моря 248 м.
В архиве по умолчанию представлена погода в Сиалкот аэропорту за последнюю неделю. Архивные данные за месяц целиком и за предыдущие месяцы, начиная с января 2011 года, Вы можете получить, выбрав интересующий диапазон дат из раскрывающегося списка и нажав кнопку "Найти!".
*Определитесь, кто Вы:
Внимание! Время в таблицах - всемирное. Для получения местного времени необходимо прибавить поправку, которая равна 5 ч.
Смотрите также архив погоды в соседних городах и на ближайших метеорологических станциях:
Партнеры нашего сайта:      
Пояснения к столбцам:
  • Ветер - указаны скорость ветра в м/с - средняя за 10 мин, порывы в срок и между сроками (в фигурных скобках) и направление, откуда дует ветер: С - северный,
  • СВ - северо-восточный, В - восточный, ЮВ - юго-восточный, Ю - южный, ЮЗ - юго-западный, З - западный, СЗ - северо-западный.
  • Видимость - горизонтальная дальность видимости в метрах или километрах. При видимости от 1 до 10 км при отсутствии осадков обычно наблюдается дымка, при ухудшении видимости до 1 км и менее - туман. В сухую погоду видимость может ухудшаться дымом, пылью или мглою.
  • Явления - указаны атмосферные явления, наблюдавшиеся в срок или в последний час перед сроком; фигурными скобками обозначены явления, наблюдавшиеся между сроками (за 1-3 часа до срока); квадратными скобками обозначены град или гололедные отложения с указанием их диаметра в мм.
  • Облачность - указаны через наклонную черту общая и нижняя облачность в баллах и высота нижней границы облаков в метрах; квадратными скобками обозначены формы облаков: Ci - перистые, Cs - перисто-слоистые, Cc - перисто-кучевые, Ac - высококучевые, As - высокослоистые, Sc - слоисто-кучевые, Ns - слоисто-дождевые, Cu - кучевые, Cb - кучево-дождевые. Подробнее классификацию облаков см. в Атласе облаков (PDF).
  • T - Температура воздуха - температура, измеренная на высоте 2 м над землей.
  • Td - Температура точки росы - температура, при понижении до которой содержащийся в воздухе водяной пар достигнет насыщения.
  • f - Относительная влажность воздуха - влажноcть воздуха, измеренная на высоте 2 м над землей.
  • Te - Эффективная температура - температура, которую ощущает одетый по сезону человек в тени. Характеристика душности погоды. При расчете учитывается влияние влажности воздуха и скорости ветра на теплоощущения человека.
  • Tes - Эффективная температура на солнце - температура, которую ощущает человек, с поправкой на солнечный нагрев. Характеристика знойности погоды. Зависит от высоты солнца над горизонтом, облачности и скорости ветра. Ночью, в пасмурную погоду, а также при ветре 12 м/с и более поправка равна нулю.
  • P - Атмосферное давление - приведенное к уровню моря атмосферное давление.
  • Po - Атмосферное давление - измеренное на уровне метеостанции атмосферное давление.
  • Tmin - Минимальная температура - минимум температуры воздуха на высоте 2 м над землей.
  • Tmax - Максимальная температура - максимум температуры воздуха на высоте 2 м над землей.
  • R - Количество осадков - Количество выпавших осадков за период времени, мм. При наведении курсора мыши на число - период времени, за который выпало указанное количество осадков.
  • R24 - Количество осадков - Количество выпавших осадков за 24 часа, мм.
  • S - Снежный покров - Высота снежного покрова, см. При наведении курсора мыши на число - состояние снежного покрова и степень покрытия местности в баллах.